Flint, MI

2:46 PM EST on February 23, 2017 (GMT -0500)
Bishop International

Weather History for KFNT - October, 2013

Change the Weather History Date:

Saturday, October 26, 2013

  Actual Average Record
Temperature  
Mean Temperature 44 °F 46 °F  
Max Temperature 54 °F 56 °F 81 °F (1963)
Min Temperature 34 °F 37 °F 24 °F (1962)
Degree Days  
Heating Degree Days 21 19  
Month to date heating degree days 298 388  
Since 1 July heating degree days 472 598  
Cooling Degree Days 0 0  
Month to date cooling degree days 15 2  
Year to date cooling degree days 758 528  
Moisture  
Dew Point 32 °F    
Average Humidity 62    
Maximum Humidity 82    
Minimum Humidity 42    
Precipitation  
Precipitation 0.11 in 0.08 in 0.69 in (1991)
Month to date precipitation 1.67 2.09  
Year to date precipitation 27.87 26.40  
Snow  
Snow 0.00 in 0.00 in 1.30 in (1997)
Month to date snowfall T 0.3  
Since 1 July snowfall T 0.3  
Since 1 September snowfall T 0.3  
Snow Depth 0.00 in    
Sea Level Pressure  
Sea Level Pressure 29.86 in    
Wind  
Wind Speed 13 mph (WSW)    
Max Wind Speed 26 mph    
Max Gust Speed 36 mph    
Visibility 9 miles    
Events Rain    
T = Trace of Precipitation, MM = Missing Value Source: NWS Daily Summary

Daily Weather History Graph

Daily Weather History Graph

Search for Another Location

Airport or City:

Trip Planner

Search our weather history database for the weather conditions in past years. The results will help you decide how hot, cold, wet, or windy it might be!

Date:

Astronomy

Oct. 26, 2013 Rise Set
Actual Time 8:02 AM EDT 6:34 PM EDT
Civil Twilight 7:32 AM EDT 7:04 PM EDT
Nautical Twilight 6:59 AM EDT 7:37 PM EDT
Astronomical Twilight 6:26 AM EDT 8:10 PM EDT
Moon No Moon Rise 2:18 PM EDT (10/26)
Length of Visible Light 11h 31m
Length of Day
10h 32m
Waning Gibbous, 53% of the Moon is Illuminated
Oct 26
Waning Gibbous
Oct 26
Last Quarter
Nov 3
New
Nov 10
First Quarter
Nov 17
Full

Hourly Weather History & Observations

Time (EDT) Temp. Windchill Dew Point Humidity Pressure Visibility Wind Dir Wind Speed Gust Speed Precip Events Conditions
12:53 AM 43.0 °F 36.8 °F 26.1 °F 51% 30.03 in 10.0 mi SW 11.5 mph 21.9 mph N/A   Overcast
1:53 AM 44.1 °F 37.1 °F 26.1 °F 49% 29.98 in 10.0 mi SSW 15.0 mph 24.2 mph N/A   Overcast
2:53 AM 45.0 °F 37.4 °F 26.1 °F 48% 29.94 in 10.0 mi SW 18.4 mph 31.1 mph N/A   Overcast
3:53 AM 46.0 °F 38.8 °F 26.1 °F 46% 29.90 in 10.0 mi SW 18.4 mph 28.8 mph N/A   Overcast
4:53 AM 46.0 °F 38.8 °F 26.1 °F 46% 29.86 in 10.0 mi SW 18.4 mph 31.1 mph N/A   Overcast
5:53 AM 46.0 °F 39.6 °F 26.1 °F 46% 29.85 in 10.0 mi SW 15.0 mph 33.4 mph N/A   Overcast
6:53 AM 46.0 °F 38.0 °F 25.0 °F 44% 29.83 in 10.0 mi SW 21.9 mph 28.8 mph N/A   Overcast
7:53 AM 45.0 °F 37.6 °F 26.1 °F 48% 29.82 in 10.0 mi WSW 17.3 mph 26.5 mph N/A   Overcast
8:53 AM 43.0 °F 35.7 °F 28.9 °F 58% 29.83 in 10.0 mi WSW 15.0 mph 20.7 mph 0.00 in Rain Light Rain
9:07 AM 41.0 °F 31.6 °F 30.2 °F 65% 29.81 in 9.0 mi SW 20.7 mph 24.2 mph 0.01 in Rain Light Rain
9:24 AM 41.0 °F 33.5 °F 32.0 °F 70% 29.81 in 10.0 mi SW 13.8 mph 23.0 mph 0.02 in Rain Light Rain
9:53 AM 41.0 °F 33.5 °F 33.1 °F 73% 29.81 in 10.0 mi SSW 13.8 mph 20.7 mph 0.02 in   Overcast
10:53 AM 45.0 °F 38.9 °F 32.0 °F 60% 29.79 in 10.0 mi SW 12.7 mph 21.9 mph N/A   Scattered Clouds
11:53 AM 48.0 °F - 32.0 °F 54% 29.77 in 10.0 mi SW 18.4 mph 26.5 mph N/A   Overcast
12:53 PM 48.0 °F - 34.0 °F 58% 29.77 in 10.0 mi WSW 15.0 mph - N/A   Overcast
1:53 PM 50.0 °F - 35.1 °F 57% 29.76 in 10.0 mi West 13.8 mph - N/A   Overcast
2:53 PM 52.0 °F - 35.1 °F 53% 29.73 in 10.0 mi SW 18.4 mph 26.5 mph N/A   Partly Cloudy
3:31 PM 44.6 °F 37.8 °F 35.6 °F 71% 29.78 in 6.0 mi NW 15.0 mph 24.2 mph 0.00 in Rain Rain
3:43 PM 42.8 °F 38.0 °F 37.4 °F 81% 29.79 in 2.5 mi NNW 8.1 mph - 0.05 in Rain Rain
3:53 PM 42.1 °F 38.4 °F 39.0 °F 89% 29.81 in 2.5 mi WNW 5.8 mph - 0.07 in Rain Rain
4:09 PM 42.8 °F 41.1 °F 39.2 °F 87% 29.79 in 4.0 mi SSW 3.5 mph - 0.02 in Rain Light Rain
4:24 PM 42.8 °F - 39.2 °F 87% 29.80 in 10.0 mi Calm Calm - 0.02 in   Overcast
4:53 PM 43.0 °F 39.5 °F 39.9 °F 89% 29.82 in 10.0 mi SSW 5.8 mph - 0.02 in   Overcast
5:53 PM 45.0 °F 39.7 °F 37.9 °F 76% 29.84 in 10.0 mi WNW 10.4 mph - N/A   Overcast
6:53 PM 45.0 °F 39.7 °F 36.0 °F 71% 29.88 in 10.0 mi NW 10.4 mph - N/A   Overcast
7:53 PM 41.0 °F 35.8 °F 30.9 °F 67% 29.92 in 10.0 mi WNW 8.1 mph - N/A   Clear
8:53 PM 39.9 °F 33.4 °F 32.0 °F 73% 29.95 in 10.0 mi West 10.4 mph - N/A   Scattered Clouds
9:53 PM 39.0 °F 32.8 °F 30.9 °F 73% 29.98 in 10.0 mi WNW 9.2 mph - N/A   Clear
10:53 PM 37.9 °F 32.1 °F 30.9 °F 76% 29.99 in 10.0 mi WNW 8.1 mph - N/A   Clear
11:53 PM 35.1 °F 29.3 °F 30.0 °F 82% 30.00 in 10.0 mi West 6.9 mph - N/A   Clear